| time (UTC) | temp F | wind direction | speed knots | gust knots | rain 1hr in | rain 24hr in | rain mn in | humidity % | barometer mb |
| 20260504231532 | 62 | 211 | 4.3 | 15.6 | 0.00 | 0.00 | 0.00 | 47 | 1007.3 |
| 20260504230016 | 63 | 227 | 1.7 | 7.8 | 0.00 | 0.00 | 0.00 | 48 | 1007.0 |
| 20260504224516 | 64 | 193 | 5.2 | 12.2 | 0.00 | 0.00 | 0.00 | 47 | 1006.8 |
| 20260504223016 | 64 | 204 | 4.3 | 13.9 | 0.00 | 0.00 | 0.00 | 46 | 1006.8 |
| 20260504221513 | 65 | 196 | 4.3 | 10.4 | 0.00 | 0.00 | 0.00 | 46 | 1006.5 |
| 20260504220013 | 66 | 214 | 4.3 | 10.4 | 0.00 | 0.00 | 0.00 | 44 | 1006.5 |
| 20260504214516 | 66 | 157 | 5.2 | 12.2 | 0.00 | 0.00 | 0.00 | 44 | 1006.3 |
| 20260504213012 | 67 | 190 | 3.5 | 17.4 | 0.00 | 0.00 | 0.00 | 42 | 1006.3 |
| 20260504211513 | 68 | 186 | 2.6 | 13.0 | 0.00 | 0.00 | 0.00 | 41 | 1006.2 |
| 20260504210014 | 68 | 180 | 4.3 | 15.6 | 0.00 | 0.00 | 0.00 | 40 | 1006.3 |
| 20260504204513 | 68 | 188 | 3.5 | 12.2 | 0.00 | 0.00 | 0.00 | 40 | 1006.1 |
| 20260504203013 | 69 | 174 | 5.2 | 10.4 | 0.00 | 0.00 | 0.00 | 35 | 1006.2 |
| 20260504201508 | 70 | 119 | 4.3 | 9.6 | 0.00 | 0.00 | 0.00 | 32 | 1006.2 |
| 20260504200013 | 70 | 198 | 3.5 | 13.0 | 0.00 | 0.00 | 0.00 | 31 | 1006.1 |
| 20260504194510 | 70 | 178 | 2.6 | 13.9 | 0.00 | 0.00 | 0.00 | 35 | 1006.1 |
| 20260504193015 | 71 | 213 | 1.7 | 11.3 | 0.00 | 0.00 | 0.00 | 33 | 1006.2 |
| 20260504191507 | 71 | 55 | 1.7 | 12.2 | 0.00 | 0.00 | 0.00 | 33 | 1006.2 |
| 20260504190009 | 71 | 189 | 2.6 | 10.4 | 0.00 | 0.00 | 0.00 | 31 | 1006.3 |
| 20260504184503 | 72 | 343 | 0.9 | 7.0 | 0.00 | 0.00 | 0.00 | 35 | 1006.4 |
| 20260504183001 | 70 | 274 | 1.7 | 11.3 | 0.00 | 0.00 | 0.00 | 36 | 1006.5 |
| 20260504181600 | 70 | 198 | 4.3 | 9.6 | 0.00 | 0.00 | 0.00 | 30 | 1006.6 |
| 20260504180100 | 71 | 200 | 6.1 | 10.4 | 0.00 | 0.00 | 0.00 | 33 | 1006.8 |
| 20260504174557 | 70 | 304 | 3.5 | 12.2 | 0.00 | 0.00 | 0.00 | 33 | 1006.8 |
| 20260504173057 | 69 | 183 | 2.6 | 10.4 | 0.00 | 0.00 | 0.00 | 36 | 1006.8 |
| 20260504171555 | 69 | 178 | 3.5 | 11.3 | 0.00 | 0.00 | 0.00 | 32 | 1006.7 |
| 20260504081522 | 45 | 296 | 0.0 | 0.9 | 0.00 | 0.00 | 0.00 | 66 | 1009.7 |
| 20260504044543 | 37 | 355 | 0.0 | 0.9 | 0.00 | 0.00 | 0.00 | 77 | 1009.5 |
| 20260504043040 | 37 | 355 | 0.0 | 0.0 | 0.00 | 0.00 | 0.00 | 77 | 1009.5 |
| 20260504041536 | 38 | 355 | 0.0 | 0.0 | 0.00 | 0.00 | 0.00 | 74 | 1009.4 |
| 20260504040033 | 38 | 355 | 0.0 | 0.0 | 0.00 | 0.00 | 0.00 | 74 | 1009.2 |
| 20260504034539 | 39 | 355 | 0.0 | 0.0 | 0.00 | 0.00 | 0.00 | 74 | 1009.2 |
| 20260504033031 | 39 | 355 | 0.0 | 0.0 | 0.00 | 0.00 | 0.00 | 73 | 1009.2 |
| 20260504031530 | 39 | 355 | 0.0 | 0.0 | 0.00 | 0.00 | 0.00 | 74 | 1009.1 |
| 20260504030037 | 40 | 355 | 0.0 | 0.0 | 0.00 | 0.00 | 0.00 | 72 | 1009.1 |
| 20260504024527 | 40 | 355 | 0.0 | 0.0 | 0.00 | 0.00 | 0.00 | 71 | 1009.0 |
| 20260504023025 | 40 | 355 | 0.0 | 0.0 | 0.00 | 0.00 | 0.00 | 70 | 1009.0 |
| 20260504021527 | 40 | 355 | 0.0 | 0.0 | 0.00 | 0.00 | 0.00 | 69 | 1008.8 |
| 20260504020020 | 41 | 355 | 0.0 | 0.0 | 0.00 | 0.00 | 0.00 | 65 | 1008.7 |
| 20260504014517 | 43 | 355 | 0.0 | 0.0 | 0.00 | 0.00 | 0.00 | 60 | 1008.7 |
| 20260504013014 | 44 | 355 | 0.0 | 0.0 | 0.00 | 0.00 | 0.00 | 59 | 1008.6 |
| 20260504011511 | 45 | 355 | 0.0 | 0.0 | 0.00 | 0.00 | 0.00 | 57 | 1008.5 |
| 20260504010009 | 46 | 355 | 0.0 | 0.0 | 0.00 | 0.00 | 0.00 | 53 | 1008.3 |
| 20260504004519 | 47 | 355 | 0.0 | 0.0 | 0.00 | 0.00 | 0.00 | 50 | 1008.1 |
| 20260504003009 | 49 | 5 | 0.0 | 5.2 | 0.00 | 0.00 | 0.00 | 47 | 1007.8 |
| 20260504001508 | 50 | 342 | 0.0 | 4.3 | 0.00 | 0.00 | 0.00 | 44 | 1007.7 |
| 20260504000008 | 50 | 318 | 0.0 | 5.2 | 0.00 | 0.00 | 0.00 | 44 | 1007.5 |
| 20260503234512 | 51 | 327 | 0.0 | 10.4 | 0.00 | 0.00 | 0.00 | 44 | 1007.2 |
| 20260503233005 | 51 | 295 | 0.9 | 7.8 | 0.00 | 0.00 | 0.00 | 41 | 1007.0 |